Tracking 23731 objects as of 26-Sep-2021
HD Live streaming from Space Station
objects crossing your sky now

STARLINK-1165

Track STARLINK-1165 now!
10-day predictions
STARLINK-1165 is classified as:


NORAD ID: 45059
Int'l Code: 2020-006R
Perigee: 553.5 km
Apogee: 555.1 km
Inclination: 53.1 °
Period: 95.6 minutes
Semi major axis: 6925 km
RCS: Unknown
Launch date: January 29, 2020
Source: United States (US)
Launch site: AIR FORCE EASTERN TEST RANGE (AFETR)
aabbcc
Your satellite tracking list
Your tracking list is empty




NASA's NSSDC Master Catalog

Two Line Element Set (TLE):
1 45059U 20006R   21268.59938057  .00001213  00000-0  10029-3 0  9998
2 45059  53.0556  26.4233 0001167  84.9654 275.1468 15.06405109 91374
Source of the keplerian elements: AFSPC